Temperature
18 18 18 18 18 18 18 18 18 18 17 17 17 17 17 16 16 16 16 16 16 16 16 16 16 16 16 15 15 15 15 15 15 15 14 14 14 14
17 17 17 17 17 17 17 17 17 17 17 17 17 17 17 16 16 16 16 16 16 16 16 16 16 16 15 15 15 15 15 15 15 15 14 14 14 14
17 17 17 17 17 17 17 17 17 17 17 17 17 16 16 16 16 16 16 16 16 16 16 16 16 15 15 15 15 15 15 15 15 15 14 14 14 14
17 16 17 17 17 17 17 17 17 17 17 16 16 16 16 16 16 16 16 15 15 16 16 16 16 15 15 15 15 15 15 14 14 14 14 14 14 14
16 16 16 16 16 16 16 16 16 16 16 16 16 16 16 16 16 16 15 15 15 15 15 15 15 15 15 15 15 15 14 14 14 14 14 14 14 14
16 16 16 16 16 16 16 16 16 16 16 16 16 16 16 16 16 15 15 15 15 15 15 15 15 15 15 15 15 15 14 14 14 14 14 14 14 14
16 16 16 16 16 16 16 16 16 16 16 16 15 15 15 15 15 15 15 15 15 15 15 15 15 15 15 15 15 14 14 14 14 14 14 14 14 13
16 16 16 16 16 16 16 15 15 15 15 15 15 15 15 15 15 15 15 15 15 15 15 15 15 15 15 15 15 14 14 14 14 14 14 13 13 13
16 16 15 15 16 16 15 15 15 15 15 15 15 15 15 15 15 14 14 14 14 15 14 15 15 14 14 14 14 14 14 14 14 13 13 13 13 13
16 16 15 15 15 15 15 15 15 15 15 15 15 15 15 15 14 14 14 14 14 14 14 14 14 14 14 14 14 14 14 14 13 13 13 13 13 13
15 15 15 15 15 15 15 15 15 15 14 14 14 14 15 14 14 14 14 14 14 14 14 14 14 14 14 14 14 14 14 13 13 13 13 13 13 12
15 15 15 15 15 15 15 15 15 15 14 14 14 14 14 14 14 14 14 13 13 13 14 14 14 13 13 13 13 13 13 13 13 13 13 12 12 12
15 15 15 15 15 15 15 15 14 14 14 14 14 14 14 14 14 13 13 13 13 13 13 13 13 13 13 13 13 13 13 13 13 13 13 12 12 12
15 15 15 14 14 14 14 14 14 14 14 14 14 14 14 13 13 13 13 13 13 13 13 13 13 13 12 12 12 13 13 13 13 12 12 12 12 12
15 15 14 14 14 14 14 14 14 14 13 13 13 13 13 13 13 13 13 13 13 13 13 13 13 12 12 12 12 12 12 12 12 12 12 12 12 12
14 14 14 14 14 14 14 14 13 13 13 13 13 13 13 13 13 13 12 12 12 12 13 13 12 12 12 12 12 12 12 12 12 12 12 11 11 11
14 14 14 14 13 13 13 13 13 13 13 13 12 12 12 12 12 12 12 12 12 12 12 12 12 12 12 12 12 12 12 11 11 11 11 11 11 11
13 13 13 13 13 13 13 13 13 13 12 12 12 12 12 12 12 12 12 12 12 11 11 11 11 11 11 11 11 11 11 11 11 11 11 10 10 10
13 13 13 13 13 12 12 12 12 12 12 12 11 11 11 11 11 11 11 11 11 11 11 11 11 11 11 10 11 11 11 11 11 10 10 10 10 10
13 13 13 13 12 12 12 12 12 11 11 11 11 11 11 11 11 10 10 10 10 10 10 10 10 10 10 10 10 10 10 10 10 10 10 10 10 10
13 12 12 12 12 12 11 11 11 11 11 10 10 10 10 10 10 10 10 10 10 10 10 9 10 10 10 10 9 10 10 10 10 10 10 9 9 9
12 12 12 12 11 11 11 11 10 10 10 10 10 10 9 9 9 9 9 9 9 9 9 9 9 9 9 9 9 9 9 9 9 9 9 9 9 9
12 12 11 11 11 10 10 10 10 10 10 9 9 9 9 9 9 9 9 9 9 9 8 8 8 8 8 8 8 8 8 9 9 9 9 9 9 9
Wind_Speed
3 2 2 2 2 2 1 1 1 2 2 1 1 1 3 4 6 6 5 8 11 11 10 9 9 8 7 6 6 5 5 5 5 7 7 7 7 8
2 1 1 2 2 2 2 1 1 1 2 1 1 1 1 1 5 4 4 6 9 11 11 11 11 10 9 8 7 7 6 6 6 6 7 8 8 8
3 2 2 2 1 3 2 2 2 1 2 2 1 0 1 0 1 2 4 5 6 10 12 12 12 11 11 10 9 8 7 7 6 6 7 7 9 10
3 2 2 2 1 2 2 2 2 1 1 2 2 1 1 2 2 2 3 4 4 8 12 12 12 12 12 11 10 9 8 8 7 7 7 7 7 8
3 2 3 2 2 2 2 2 2 2 1 2 2 1 1 2 2 3 3 2 4 6 10 12 13 12 12 11 11 10 10 9 9 8 8 8 7 7
2 2 2 2 2 3 3 2 3 3 3 2 2 2 1 2 2 2 2 2 3 4 4 7 11 13 14 13 12 11 11 10 10 9 9 9 9 9
2 1 1 1 1 1 2 2 3 2 3 2 2 2 2 1 2 2 3 3 3 2 2 4 5 6 9 12 13 13 12 11 11 11 10 10 10 10
2 2 2 2 2 1 2 4 3 3 2 3 2 2 2 2 2 3 2 2 3 2 2 4 3 4 5 8 12 14 14 13 12 12 11 11 11 11
2 2 3 1 2 2 2 4 4 4 5 3 3 4 3 2 2 3 3 4 4 3 2 4 3 3 3 7 14 16 15 14 13 13 12 12 13 12
1 1 0 1 2 2 2 2 2 3 5 4 3 4 3 2 2 4 5 4 4 4 2 3 3 3 3 4 11 15 15 14 14 13 13 13 13 13
2 1 1 0 0 2 2 3 3 3 3 3 4 5 6 6 4 3 3 3 4 4 2 2 3 3 2 2 6 12 13 13 13 13 13 13 12 11
2 2 1 2 1 1 2 3 4 4 4 4 4 5 6 7 7 5 4 4 4 3 2 2 2 2 3 2 2 5 8 10 13 13 13 13 11 8
2 2 1 3 4 3 3 3 4 4 4 5 5 4 3 3 3 4 4 4 4 4 3 2 3 3 3 2 1 2 4 4 6 8 12 13 13 10
2 1 0 2 3 3 3 4 5 4 4 4 3 3 2 2 3 4 5 5 5 5 5 4 3 3 3 4 3 2 2 3 4 4 5 8 11 14
2 1 1 2 2 3 5 6 5 3 3 4 4 4 3 3 3 3 3 4 5 7 7 5 4 4 4 4 4 3 3 4 3 3 3 4 5 5
3 3 4 5 4 4 3 3 3 3 3 4 4 4 3 3 3 3 3 3 4 5 5 6 5 5 5 5 5 5 4 3 3 3 3 4 4 6
1 2 2 1 2 2 3 2 2 2 3 4 4 4 4 3 3 3 3 3 4 4 4 3 4 4 5 5 5 5 4 4 4 3 3 4 5 4
1 1 2 2 2 3 3 2 2 1 1 2 2 3 4 4 4 4 3 3 4 4 4 4 3 3 3 4 5 5 5 5 4 4 4 4 4 4
1 2 2 2 2 2 2 2 2 1 1 2 2 3 3 4 4 4 3 3 4 4 4 4 3 3 5 6 5 5 5 5 4 4 4 4 5 4
2 2 2 2 2 2 2 3 3 3 2 2 3 3 3 3 4 4 4 4 4 5 5 4 3 3 5 6 5 5 6 5 4 4 4 3 3 4
2 2 2 2 2 2 2 2 2 3 3 3 3 3 3 4 4 4 5 5 4 4 5 4 4 6 5 4 4 4 4 5 6 4 4 4 4 4
2 2 2 2 2 2 2 2 3 3 3 3 3 3 3 4 5 5 5 5 4 4 5 5 5 4 3 4 5 5 5 4 4 7 7 7 5 5
2 2 2 2 2 2 2 3 4 3 3 3 4 4 4 4 4 4 5 5 5 5 5 5 4 3 3 4 5 5 6 5 3 3 4 6 8 9
Wind_Direction
255 266 266 286 302 307 308 292 265 265 246 213 170 150 145 153 160 172 176 193 204 208 209 212 214 217 219 223 226 229 231 231 237 238 237 237 239 234
227 253 268 299 305 310 300 305 296 286 280 230 221 127 119 155 162 184 204 206 211 212 212 212 214 217 220 221 223 224 225 228 236 241 242 241 238 234
240 225 228 262 303 310 314 312 303 295 272 279 241 153 140 104 141 216 211 211 216 220 215 214 216 218 219 220 220 223 224 229 236 241 244 245 242 237
239 238 238 236 228 272 292 285 284 272 247 271 263 232 221 200 207 231 227 226 220 223 215 216 218 221 221 220 220 222 223 227 233 239 244 246 243 240
231 231 241 245 253 269 272 290 294 290 251 250 263 242 234 231 223 239 249 242 243 229 210 218 223 221 219 220 220 222 224 226 229 233 238 243 241 236
230 235 245 239 256 281 278 287 295 303 286 264 253 246 233 245 231 241 252 244 258 252 213 213 215 215 216 217 219 222 225 227 229 232 236 239 239 236
226 214 219 201 236 272 293 313 306 300 296 291 280 276 265 250 253 258 261 255 255 256 249 225 202 207 213 218 218 221 223 226 229 232 235 239 239 236
236 230 215 191 186 233 267 267 263 265 277 283 291 283 294 296 292 286 282 289 279 265 262 260 212 214 207 202 205 209 214 219 224 229 234 237 238 236
224 241 266 265 182 221 250 246 248 245 237 250 278 288 288 298 309 302 292 279 271 264 272 272 253 241 219 201 194 200 206 213 218 225 230 234 235 234
226 213 213 294 311 327 286 275 257 243 237 236 254 273 277 290 286 276 274 277 271 264 234 261 265 256 241 186 198 200 205 210 216 223 228 232 234 233
227 222 246 244 335 336 318 307 299 288 256 238 230 247 253 259 265 289 288 289 289 286 249 249 272 270 247 220 208 203 206 214 220 225 230 234 234 233
195 191 207 215 221 224 247 272 280 284 290 281 264 255 253 255 243 234 257 270 284 282 275 270 280 292 281 253 195 201 214 222 225 229 232 233 231 226
221 212 212 193 211 229 242 255 263 280 286 277 271 262 244 239 231 229 238 247 263 272 283 284 282 279 263 278 268 217 210 217 220 230 228 229 225 215
274 279 116 172 202 236 256 273 279 285 283 289 291 294 290 275 259 247 240 238 242 256 274 274 268 267 269 277 278 262 243 236 218 213 211 218 222 223
293 283 227 221 230 246 255 264 277 275 279 286 290 287 282 280 279 265 259 253 258 265 266 254 252 259 257 263 269 270 273 257 230 220 213 209 209 207
289 283 250 241 246 271 278 257 252 256 262 276 285 289 294 294 290 285 283 280 274 275 267 266 255 251 256 259 260 264 267 267 253 227 225 235 225 213
271 267 267 247 248 251 253 252 252 245 260 275 290 296 296 296 294 294 282 276 272 277 284 277 257 247 248 256 260 259 259 261 259 249 240 243 236 225
201 243 257 260 270 279 279 275 271 272 292 300 304 310 312 310 307 306 301 293 291 292 295 294 293 294 293 283 253 256 258 261 261 258 253 251 250 241
204 255 267 281 289 293 298 309 329 348 337 307 304 306 308 309 311 315 316 312 303 299 298 294 289 278 277 279 277 246 250 256 258 257 255 256 256 250
249 268 283 287 294 317 338 351 350 342 339 326 317 316 317 319 322 321 319 316 311 305 300 296 293 283 272 274 282 282 260 251 254 254 258 258 257 259
267 273 295 320 342 356 2 352 334 327 329 326 322 326 332 327 320 316 311 306 302 300 302 301 292 289 279 281 283 284 281 255 241 239 246 251 257 252
311 331 5 14 4 356 346 332 316 312 317 317 325 323 312 307 308 307 308 308 301 296 297 298 297 293 288 285 285 288 287 285 267 262 256 244 239 244
345 351 359 359 356 340 341 339 332 336 342 338 329 320 315 306 301 305 309 308 308 309 309 307 309 306 295 290 292 297 297 298 297 297 286 274 255 251
Height
1532 1532 1532 1532 1533 1533 1534 1534 1535 1534 1533 1533 1533 1533 1532 1532 1531 1531 1530 1530 1530 1530 1529 1529 1528 1528 1527 1527 1527 1527 1527 1528 1528 1529 1530 1530 1531 1532
1529 1530 1530 1530 1531 1531 1532 1532 1532 1532 1531 1531 1531 1531 1531 1530 1529 1529 1529 1528 1528 1528 1527 1527 1526 1526 1526 1525 1525 1525 1525 1526 1526 1527 1527 1527 1528 1528
1527 1527 1527 1527 1528 1528 1529 1529 1529 1529 1529 1529 1529 1529 1528 1528 1528 1527 1526 1526 1525 1525 1525 1524 1524 1524 1523 1523 1523 1523 1523 1523 1523 1523 1524 1524 1524 1524
1524 1525 1525 1525 1525 1526 1526 1527 1527 1527 1527 1526 1526 1526 1526 1525 1525 1525 1524 1523 1523 1522 1522 1522 1522 1521 1521 1521 1521 1520 1520 1520 1520 1520 1520 1520 1520 1520
1522 1522 1523 1523 1523 1524 1524 1524 1524 1525 1524 1524 1523 1523 1523 1523 1523 1522 1522 1521 1521 1520 1520 1519 1519 1518 1518 1518 1518 1517 1517 1517 1517 1517 1517 1517 1517 1517
1519 1520 1520 1521 1521 1521 1522 1522 1522 1522 1522 1522 1521 1521 1521 1521 1520 1520 1519 1519 1518 1518 1517 1516 1516 1516 1515 1515 1514 1514 1514 1513 1513 1513 1513 1513 1513 1513
1517 1517 1518 1518 1518 1519 1519 1519 1519 1519 1520 1519 1519 1519 1518 1518 1518 1517 1517 1516 1516 1515 1514 1513 1513 1512 1512 1511 1511 1511 1510 1510 1510 1509 1509 1509 1509 1509
1515 1515 1515 1516 1516 1516 1516 1516 1517 1517 1517 1517 1517 1516 1516 1515 1515 1515 1515 1514 1513 1513 1511 1510 1510 1509 1508 1507 1507 1507 1507 1507 1506 1506 1505 1505 1505 1505
1513 1513 1513 1514 1513 1513 1513 1513 1513 1514 1514 1514 1514 1513 1513 1513 1512 1512 1512 1511 1511 1510 1509 1507 1507 1506 1505 1504 1504 1503 1503 1503 1502 1502 1501 1501 1501 1500
1511 1511 1511 1511 1510 1511 1510 1510 1510 1510 1510 1510 1510 1510 1510 1510 1509 1509 1508 1508 1507 1506 1506 1504 1503 1503 1502 1502 1501 1500 1500 1499 1499 1498 1497 1497 1496 1496
1509 1509 1509 1509 1508 1508 1508 1508 1507 1507 1507 1507 1507 1507 1506 1506 1506 1506 1505 1504 1503 1502 1502 1501 1500 1499 1499 1498 1498 1497 1497 1496 1495 1494 1494 1493 1493 1492
1507 1507 1507 1507 1506 1506 1506 1505 1504 1504 1504 1504 1504 1503 1503 1503 1503 1502 1502 1501 1500 1499 1498 1498 1497 1496 1495 1495 1494 1494 1493 1492 1491 1491 1490 1490 1489 1488
1504 1504 1505 1504 1504 1504 1503 1502 1502 1501 1501 1501 1500 1500 1500 1499 1499 1499 1498 1498 1497 1496 1496 1495 1494 1493 1492 1491 1491 1490 1489 1488 1488 1487 1486 1486 1485 1485
1502 1503 1503 1502 1502 1501 1501 1500 1500 1499 1498 1498 1497 1497 1497 1496 1495 1495 1494 1494 1493 1492 1492 1491 1490 1489 1488 1487 1486 1486 1485 1485 1484 1483 1482 1482 1481 1481
1500 1500 1500 1500 1500 1499 1498 1498 1497 1496 1495 1495 1494 1494 1494 1493 1493 1492 1491 1490 1489 1488 1488 1487 1486 1485 1484 1483 1482 1481 1481 1481 1481 1479 1478 1478 1477 1477
1498 1498 1498 1498 1497 1497 1496 1495 1495 1494 1493 1493 1492 1491 1491 1490 1489 1488 1487 1486 1485 1483 1483 1482 1481 1480 1479 1479 1478 1477 1477 1476 1475 1475 1474 1473 1473 1473
1496 1496 1495 1495 1495 1494 1494 1493 1492 1491 1491 1490 1489 1488 1487 1486 1485 1484 1483 1482 1481 1479 1478 1478 1477 1476 1475 1475 1473 1472 1472 1471 1470 1470 1469 1468 1468 1468
1494 1493 1493 1493 1493 1492 1492 1491 1490 1489 1488 1488 1487 1485 1484 1483 1481 1480 1479 1478 1477 1476 1475 1474 1473 1472 1471 1469 1470 1468 1467 1466 1465 1465 1464 1463 1463 1463
1492 1491 1491 1491 1491 1491 1491 1490 1488 1487 1486 1485 1484 1482 1481 1479 1478 1476 1475 1474 1473 1472 1471 1470 1469 1468 1466 1464 1464 1464 1462 1460 1460 1459 1459 1458 1457 1457
1490 1490 1490 1490 1490 1489 1488 1487 1486 1485 1484 1483 1481 1480 1478 1477 1475 1473 1472 1471 1469 1468 1467 1466 1465 1463 1462 1460 1459 1458 1458 1456 1455 1454 1454 1453 1452 1453
1488 1488 1488 1488 1487 1486 1485 1484 1484 1483 1482 1480 1479 1477 1475 1474 1472 1470 1469 1467 1466 1464 1463 1461 1460 1459 1458 1456 1454 1452 1452 1452 1451 1450 1449 1448 1447 1447
1487 1486 1486 1485 1485 1484 1483 1482 1481 1480 1478 1477 1476 1474 1473 1471 1469 1468 1466 1464 1463 1461 1459 1458 1456 1455 1454 1452 1450 1448 1447 1446 1446 1445 1444 1444 1443 1441
1484 1483 1483 1483 1482 1481 1480 1478 1478 1476 1475 1474 1472 1471 1469 1468 1466 1465 1463 1461 1459 1457 1456 1454 1452 1451 1450 1448 1446 1445 1443 1442 1441 1440 1439 1439 1438 1438